When you browse on this site, cookies collect data to enhance your experience and personalize the content and advertising you see.
Visit our Privacy Policy to learn more. By continuing to use the site, you agree to this use of cookies and data.
  • In Hungary
  • List of Countries
  • For 7 days
  • Water Temperature
  • Satellite Maps
  • Weather Map
  • News
  • Weather Widgets
  • user-avatar
    Login

    Hourly Weather Katiola

    Today, 12 December, Wednesday

    Time Temperature Precipitation Wind Pressure Humidity
    00:00 +27°C° 0 mm 1 mps 733 mmHg 51%
    01:00 +27°C° 0 mm 1 mps 732 mmHg 53%
    02:00 +26°C° 0 mm 1 mps 732 mmHg 55%
    03:00 +26°C° 0 mm 1 mps 732 mmHg 56%
    04:00 +25°C° 0 mm 1 mps 732 mmHg 59%
    05:00 +25°C° 0 mm 1 mps 732 mmHg 62%
    06:00 +24°C° 0 mm 1 mps 732 mmHg 66%
    07:00 +26°C° 0 mm 1 mps 732 mmHg 61%
    08:00 +28°C° 0 mm 1 mps 733 mmHg 56%
    09:00 +30°C° 0 mm 1 mps 733 mmHg 51%
    10:00 +32°C° 0 mm 1 mps 733 mmHg 43%
    11:00 +35°C° 0 mm 1 mps 733 mmHg 34%
    12:00 +37°C° 0 mm 2 mps 733 mmHg 26%
    13:00 +37°C° 0 mm 2 mps 732 mmHg 25%
    14:00 +38°C° 0 mm 2 mps 732 mmHg 23%
    15:00 +38°C° 0 mm 2 mps 731 mmHg 22%
    16:00 +37°C° 0 mm 2 mps 731 mmHg 24%
    17:00 +34°C° 0 mm 1 mps 731 mmHg 27%
    18:00 +33°C° 0 mm 1 mps 731 mmHg 29%
    19:00 +32°C° 0 mm 1 mps 731 mmHg 31%
    20:00 +31°C° 0 mm 1 mps 732 mmHg 34%
    21:00 +30°C° 0 mm 1 mps 733 mmHg 36%
    22:00 +29°C° 0 mm 1 mps 733 mmHg 38%
    23:00 +28°C° 0 mm 1 mps 733 mmHg 39%

    Tomorrow, 13 December, Thursday

    Time Temperature Precipitation Wind Pressure Humidity
    00:00 +26°C° 0 mm 0 mps 733 mmHg 41%
    01:00 +25°C° 0 mm 0 mps 732 mmHg 45%
    02:00 +24°C° 0 mm 0 mps 732 mmHg 50%
    03:00 +26°C° 0 mm 1 mps 732 mmHg 54%
    04:00 +23°C° 0 mm 0 mps 732 mmHg 59%
    05:00 +23°C° 0 mm 0 mps 733 mmHg 63%
    06:00 +22°C° 0 mm 0 mps 733 mmHg 67%
    07:00 +24°C° 0 mm 0 mps 733 mmHg 62%
    08:00 +27°C° 0 mm 0 mps 734 mmHg 57%
    09:00 +29°C° 0 mm 0 mps 735 mmHg 52%
    10:00 +33°C° 0 mm 1 mps 734 mmHg 43%
    11:00 +35°C° 0 mm 1 mps 734 mmHg 34%
    12:00 +37°C° 0 mm 1 mps 734 mmHg 25%
    13:00 +38°C° 0 mm 2 mps 733 mmHg 24%
    14:00 +38°C° 0 mm 2 mps 732 mmHg 22%
    15:00 +39°C° 0 mm 2 mps 731 mmHg 21%
    16:00 +37°C° 0 mm 2 mps 731 mmHg 22%
    17:00 +36°C° 0 mm 2 mps 731 mmHg 24%
    18:00 +33°C° 0 mm 1 mps 731 mmHg 26%
    19:00 +32°C° 0 mm 1 mps 732 mmHg 28%
    20:00 +31°C° 0 mm 1 mps 732 mmHg 30%
    21:00 +30°C° 0 mm 1 mps 733 mmHg 32%
    22:00 +29°C° 0 mm 1 mps 733 mmHg 34%
    23:00 +27°C° 0 mm 0 mps 733 mmHg 37%

    Day after tomorrow, 14 December, Friday

    Time Temperature Precipitation Wind Pressure Humidity
    00:00 +26°C° 0 mm 0 mps 733 mmHg 39%
    01:00 +25°C° 0 mm 0 mps 733 mmHg 42%
    02:00 +27°C° 0 mm 1 mps 732 mmHg 45%
    03:00 +26°C° 0 mm 1 mps 732 mmHg 48%
    04:00 +23°C° 0 mm 0 mps 732 mmHg 53%
    05:00 +23°C° 0 mm 0 mps 732 mmHg 59%
    06:00 +22°C° 0 mm 0 mps 733 mmHg 65%
    07:00 +24°C° 0 mm 0 mps 733 mmHg 59%
    08:00 +27°C° 0 mm 0 mps 734 mmHg 53%
    09:00 +29°C° 0 mm 0 mps 735 mmHg 47%
    10:00 +33°C° 0 mm 1 mps 734 mmHg 39%
    11:00 +36°C° 0 mm 2 mps 734 mmHg 30%
    12:00 +37°C° 0 mm 3 mps 734 mmHg 22%
    13:00 +38°C° 0 mm 3 mps 733 mmHg 20%
    14:00 +39°C° 0 mm 3 mps 732 mmHg 18%
    15:00 +39°C° 0 mm 3 mps 731 mmHg 16%
    16:00 +38°C° 0 mm 2 mps 731 mmHg 17%
    17:00 +36°C° 0 mm 2 mps 731 mmHg 18%
    18:00 +33°C° 0 mm 1 mps 731 mmHg 19%
    19:00 +32°C° 0 mm 1 mps 732 mmHg 21%
    20:00 +31°C° 0 mm 1 mps 732 mmHg 22%
    21:00 +27°C° 0 mm 0 mps 733 mmHg 23%
    22:00 +29°C° 0 mm 1 mps 733 mmHg 24%
    23:00 +28°C° 0 mm 1 mps 733 mmHg 25%

    15 December, Saturday

    Time Temperature Precipitation Wind Pressure Humidity
    00:00 +28°C° 0 mm 1 mps 733 mmHg 25%
    01:00 +27°C° 0 mm 1 mps 733 mmHg 31%
    02:00 +26°C° 0 mm 1 mps 732 mmHg 36%
    03:00 +23°C° 0 mm 0 mps 732 mmHg 42%
    04:00 +22°C° 0 mm 0 mps 732 mmHg 47%
    05:00 +22°C° 0 mm 0 mps 733 mmHg 52%
    06:00 +21°C° 0 mm 0 mps 733 mmHg 57%
    07:00 +26°C° 0 mm 1 mps 734 mmHg 52%
    08:00 +28°C° 0 mm 1 mps 734 mmHg 47%
    09:00 +30°C° 0 mm 1 mps 735 mmHg 41%
    10:00 +32°C° 0 mm 1 mps 735 mmHg 34%
    11:00 +35°C° 0 mm 2 mps 734 mmHg 27%
    12:00 +38°C° 0 mm 3 mps 734 mmHg 20%
    13:00 +38°C° 0 mm 3 mps 733 mmHg 18%
    14:00 +39°C° 0 mm 3 mps 732 mmHg 16%
    15:00 +40°C° 0 mm 3 mps 731 mmHg 15%
    16:00 +38°C° 0 mm 2 mps 731 mmHg 16%
    17:00 +36°C° 0 mm 2 mps 731 mmHg 17%
    18:00 +34°C° 0 mm 1 mps 731 mmHg 18%
    19:00 +32°C° 0 mm 1 mps 732 mmHg 19%
    20:00 +31°C° 0 mm 1 mps 732 mmHg 20%
    21:00 +30°C° 0 mm 1 mps 733 mmHg 21%
    22:00 +29°C° 0 mm 1 mps 733 mmHg 21%
    23:00 +28°C° 0 mm 1 mps 732 mmHg 22%

    16 December, Sunday

    Time Temperature Precipitation Wind Pressure Humidity
    00:00 +28°C° 0 mm 1 mps 732 mmHg 23%
    01:00 +27°C° 0 mm 1 mps 732 mmHg 25%
    02:00 +26°C° 0 mm 1 mps 732 mmHg 27%
    03:00 +25°C° 0 mm 1 mps 732 mmHg 30%
    04:00 +25°C° 0 mm 1 mps 732 mmHg 32%
    05:00 +22°C° 0 mm 0 mps 732 mmHg 34%
    06:00 +21°C° 0 mm 0 mps 732 mmHg 37%
    07:00 +26°C° 0 mm 1 mps 733 mmHg 33%
    08:00 +28°C° 0 mm 1 mps 734 mmHg 30%
    09:00 +30°C° 0 mm 1 mps 734 mmHg 26%
    10:00 +32°C° 0 mm 2 mps 734 mmHg 23%
    11:00 +35°C° 0 mm 2 mps 733 mmHg 20%
    12:00 +38°C° 0 mm 3 mps 733 mmHg 16%
    13:00 +38°C° 0 mm 3 mps 732 mmHg 16%
    14:00 +39°C° 0 mm 3 mps 731 mmHg 15%
    15:00 +39°C° 0 mm 2 mps 730 mmHg 15%
    16:00 +37°C° 0 mm 2 mps 731 mmHg 17%
    17:00 +36°C° 0 mm 2 mps 731 mmHg 19%
    18:00 +33°C° 0 mm 1 mps 731 mmHg 22%
    19:00 +32°C° 0 mm 1 mps 731 mmHg 24%
    20:00 +31°C° 0 mm 1 mps 732 mmHg 27%
    21:00 +29°C° 0 mm 1 mps 732 mmHg 29%
    22:00 +29°C° 0 mm 1 mps 732 mmHg 32%
    23:00 +28°C° 0 mm 1 mps 732 mmHg 35%

    17 December, Monday

    Time Temperature Precipitation Wind Pressure Humidity
    00:00 +25°C° 0 mm 0 mps 732 mmHg 37%
    01:00 +24°C° 0 mm 0 mps 732 mmHg 41%
    02:00 +24°C° 0 mm 0 mps 731 mmHg 45%
    03:00 +23°C° 0 mm 0 mps 731 mmHg 49%
    04:00 +23°C° 0 mm 0 mps 732 mmHg 53%
    05:00 +24°C° 0 mm 1 mps 732 mmHg 57%
    06:00 +24°C° 0 mm 1 mps 732 mmHg 61%
    07:00 +26°C° 0 mm 1 mps 733 mmHg 58%
    08:00 +27°C° 0 mm 1 mps 733 mmHg 56%
    09:00 +29°C° 0 mm 2 mps 734 mmHg 53%
    10:00 +32°C° 0 mm 1 mps 734 mmHg 44%
    11:00 +35°C° 0 mm 1 mps 734 mmHg 34%
    12:00 +37°C° 0 mm 0 mps 733 mmHg 25%
    13:00 +37°C° 0 mm 0 mps 732 mmHg 23%
    14:00 +40°C° 0 mm 1 mps 732 mmHg 21%
    15:00 +40°C° 0 mm 1 mps 731 mmHg 19%
    16:00 +37°C° 0 mm 1 mps 731 mmHg 21%
    17:00 +35°C° 0 mm 1 mps 731 mmHg 23%
    18:00 +33°C° 0 mm 1 mps 731 mmHg 25%
    19:00 +32°C° 0 mm 1 mps 731 mmHg 30%
    20:00 +31°C° 0 mm 1 mps 732 mmHg 34%
    21:00 +30°C° 0 mm 1 mps 732 mmHg 38%
    22:00 +29°C° 0 mm 1 mps 732 mmHg 42%
    23:00 +28°C° 0 mm 1 mps 732 mmHg 47%
    Show more